FENGYUN 1C DEB, 31255

Orbit data source: Space-Track

FENGYUN 1C DEB, 31255 is space debris in SSO originally from a launch on Mon, 10 May 1999 UTC launched from the Taiyaun Space Center, China (TSC). Fengyun 1C debris stems from the Chinese weather satellite Fengyun-1C, which was intentionally destroyed by a Chinese anti-satellite missile in 2007. This event dramatically increased the amount of space debris, with thousands of trackable fragments posing hazards to satellites and human spaceflight. The Fengyun 1C debris cloud has become a focal point in discussions about space sustainability and the need for international regulations to prevent the creation of new debris.

Loading next visibility...
Identifier
31255, 1999-025BMM
Orbit
SSO
Country
Flag of CNCN / PRC
Related business
Manufacturer
Unknown
Mission
Spacecraft
Bus & Motor
Unknown
Mass
Unknown
Launch date (UTC)
1999-05-10 (27 years ago)
Launch vehicle
Unknown
Launch site
Taiyaun Space Center, China (TSC)
Object type
Payload
Rocket body
Debris
Shape & HBR
Unknown shape, 0.1 m
Radar Cross Section
Medium (>0.1 m² and <1 m²)

Expand to show TLE details & history
Last TLE update: 2 days ago

TLE from 2 days ago
0 FENGYUN 1C DEB
1 31255U 99025BMM 26253.31243451  .00000352  00000-0  16379-3 0  9991
2 31255  99.3143  85.2683 0268784 306.9354  50.7467 14.10175423  5646
Epoch: 2026-09-10T07:29Z
TLE epoch observation values (Epoch: 2026-09-10T07:29:54.341Z)
Latitude
-0.00004°
Longitude
-16.56006°
Altitude
741.769 km
Speed
7.546 km/s
True Right ascension
05h 41m 04s
True Declination
0° 00' 00"
Sunlit
Object was in daylight at epoch
Visualization orbit readout
Latitude
Unknown
Longitude
Unknown
Altitude
Unknown
Speed
Unknown
Apparent Right ascension
Unknown
Apparent Declination
Unknown
Sunlit
N/A
Visualization observer readout
Local Sidereal Time
13:00:42
Azimuth
Unknown
Elevation
Unknown
Doppler factor
Unknown
Orbital elements
Apogee altitude
1,050.411 km
Perigee altitude
661.529 km
Semi-major axis
7,234.107 km
Eccentricity
0.02688
Inclination
99.3143°
RAAN
85.2683°
Arg. of periapsis
306.9354°
True anomaly
53.18277°
Mean anomaly
50.7467°
Eccentric anomaly
51.95958°
Mean motion
3.52749 °/min
Orbital period
102.06 mins
BSTAR
0.00016379
Loading maneuver chart data...
Computing Atmospheric mass density...
Loading historical data...
Loading historical data...
Loading historical data...
Loading historical data...
Loading historical data...
Loading historical data...
Loading historical data...

Documentation

Showing up to 5 results
|